Location: Helion Bumpstead
(52.0500°N, 0.4000°E)
Time: 08:00:57
(UTC+00:00)

Lacrosse 4 Rocket - Pass Details

Date: 15 November 2025
Orbit: 513 x 566 km, 68.0° (Epoch: 14 December)

Event Time Altitude Azimuth Distance (km) Brightness Sun altitude
Exits shadow 05:59:26 10° 329° (NNW) 1,799 3.5 -12.1°
Reaches altitude 10° 05:59:27 10° 329° (NNW) 1,792 3.5 -12.1°
Maximum altitude 06:03:25 61° 50° (NE) 603 1.7 -11.5°
Drops below altitude 10° 06:07:17 10° 132° (SE) 1,752 5.0 -10.9°
Sets 06:09:27 0° 136° (SE) 2,630 6.0 -10.6°
